Regional Weather Roundup
Issued by NWS Sioux Falls, SD

Home | Current Version | Previous Version | Text Only | Print | Product List | Glossary On
Versions: 1 2 3 4 5 6 7 8 9 10 11 12 13 14 15 16 17 18 19 20 21 22 23 24 25 26 27 28 29 30 31 32 33 34 35 36 37 38 39 40 41 42 43 44 45 46 47 48 49 50
000
ASUS43 KFSD 042102
RWRFSD

WEATHER ROUNDUP FOR SE SOUTH DAKOTA/SW MINNESOTA/NW IOWA
NATIONAL WEATHER SERVICE SIOUX FALLS SD
400 PM CDT SAT JUL 04 2015

NOTE: "FAIR" INDICATES FEW OR NO CLOUDS BELOW 12,000 FEET WITH NO
SIGNIFICANT WEATHER AND OR OBSTRUCTIONS TO VISIBILITY.


SDZ038>040-050-052>070-042200-
SOUTHEAST SOUTH DAKOTA

CITY           SKY/WX    TMP DP  RH WIND       PRES   REMARKS
BROOKINGS      MOSUNNY   81  63  54 S16       29.92S
CHAMBERLAIN    NOT AVBL
HURON          SUNNY     85  65  51 S17G26    29.83F
MADISON        FAIR      81  64  57 S14G22    29.91F
MITCHELL       SUNNY     84  65  52 S16G25    29.86F
SIOUX FALLS    CLOUDY    82  65  56 S9        29.91F
WINNER         FAIR      93  59  31 S16G29    29.82F
YANKTON        PTSUNNY   81  64  57 S20       29.88F
$$

MNZ071-072-080-081-089-090-097-098-042200-
SOUTHWEST MINNESOTA

CITY           SKY/WX    TMP DP  RH WIND       PRES   REMARKS
FAIRMONT       MOSUNNY   81  59  47 S7        29.95F
JACKSON        MOSUNNY   81  61  50 S8        29.96F
LUVERNE        MOSUNNY   81  63  54 S10G16    29.93F
MARSHALL       SUNNY     82  61  47 S15         N/A
MONTEVIDEO     MOSUNNY   84  64  51 SW10G18   29.90S
PIPESTONE      MOSUNNY   81  61  50 S13       29.93F
REDWOOD FALLS  MOSUNNY   85  64  49 S13       29.90F
TRACY          SUNNY     82  64  54 S8        29.92S
WINDOM         MOSUNNY   82  63  51 S9        29.94F
WORTHINGTON    MOSUNNY   79  61  53 S16       29.95S
$$

IAZ001>003-012>014-020>022-031-032-NEZ013-014-SDZ071-042200-
NORTHWEST IOWA

CITY           SKY/WX    TMP DP  RH WIND       PRES   REMARKS
DENISON        SUNNY     79  59  50 S10G17    29.95F
ESTHERVILLE    MOSUNNY   79  62  56 S9        29.95F
SIOUX CITY     PTSUNNY   82  65  56 S14       29.93F
SPENCER        MOSUNNY   82  60  47 S7        29.96F
$$

ABBREVIATIONS USED IN REMARKS
   TC - TEMPERATURE IN CELSIUS
  WCI - WIND CHILL INDEX
   HX - HEAT INDEX
  VSB - VISIBILITY



USA.gov is the U.S. government's official web portal to all federal, state and local government web resources and services.